Location: *
(53.4003°S, 165.3236°W)
Time: 01:29:33
(UTC+00:00)

PAYLOAD A - Pass Details

Date: 11 December 2023
Orbit: 691 x 830 km, 98.5° (Epoch: 24 February)

Event Time Altitude Azimuth Distance (km) Brightness Sun altitude
Rises 13:01:07 0° 30° (NNE) 3,074 6.8 -8.8°
Reaches altitude 10° 13:03:21 10° 33° (NNE) 2,167 6.1 -8.7°
Maximum altitude 13:08:00 60° 111° (ESE) 822 4.5 -8.3°
Drops below altitude 10° 13:12:48 10° 190° (S) 2,236 7.2 -7.9°
Sets 13:15:09 0° 193° (SSW) 3,181 7.9 -7.8°
